AIS & APRS & ARIS & R/B (44104 NORAD) Tracking and Keplerian Element Data

This shows tracking and keplerian element data for the satellite.

Feedback or suggestion? Click here.




ElementValue
Catalog44104
NameAIS & APRS & ARIS & R/B
Epoch Orbit314
Epoch Day111.73898719
Epoch Year2019
RAAN172.4866
Inclination97.5153
Eccentricity0.00576
Argument of Perigee272.1016
Mean Anonmoly87.3629
Mean Motion15.30353025
Decay Rate6.42E-06
L11 44104U 19018AC 19111.73898719 .00000642 00000-0 23619-4 0 9994
L22 44104 97.5153 172.4866 0057600 272.1016 87.3629 15.30353025 3146

Live tracking and technical data element details for AIS & APRS & ARIS & R/B (NORAD 44104). AIS & APRS & ARIS & R/B can be tracked NOW for your location showing map with azimuth and elevation plus other details from your city location.

Track the satellite on the map from your city or location and see movement details for azimuth, elevation, latitude, longitude, range, height, and movement on the map or in text.







IsCatalogInMostPopularTable: catalog: 44104, numindb: 23
Update: records affected: 1



GetName: 44104 AIS & APRS & ARIS & R/B

Hit Count: updated at: Tue, 23 Apr 2019 02:20:06 GMT